Time,TemperatureF,DewpointF,PressureIn,WindDirection,WindDirectionDegrees,WindSpeedMPH,WindSpeedGustMPH,Humidity,HourlyPrecipIn,Conditions,Clouds,dailyrainin,SoftwareType,DateUTC
2013-06-09 00:02:00,74.7,66.6,29.84,ENE,73,1.0,4.0,76,0.00,,---,0.00,VWS V14.01,2013-06-09 05:02:00,
2013-06-09 00:07:00,74.6,66.9,29.84,East,98,5.0,5.0,77,0.00,,---,0.00,VWS V14.01,2013-06-09 05:07:00,
2013-06-09 00:12:00,74.7,66.6,29.84,ESE,122,4.0,6.0,76,0.00,,---,0.00,VWS V14.01,2013-06-09 05:12:00,
2013-06-09 00:17:00,74.5,66.8,29.84,East,101,2.0,6.0,77,0.00,,---,0.00,VWS V14.01,2013-06-09 05:17:00,
2013-06-09 00:22:00,74.4,66.7,29.84,East,86,3.0,6.0,77,0.00,,---,0.00,VWS V14.01,2013-06-09 05:22:00,
2013-06-09 00:27:00,74.2,65.8,29.84,ENE,77,2.0,6.0,75,0.00,,---,0.00,VWS V14.01,2013-06-09 05:27:00,
2013-06-09 00:32:00,74.2,66.2,29.84,East,100,1.0,1.0,76,0.00,,---,0.00,VWS V14.01,2013-06-09 05:32:00,
2013-06-09 00:37:00,73.9,65.9,29.84,ESE,110,1.0,3.0,76,0.00,,---,0.00,VWS V14.01,2013-06-09 05:37:00,
2013-06-09 00:42:00,73.7,65.7,29.84,East,101,0.0,3.0,76,0.00,,---,0.00,VWS V14.01,2013-06-09 05:42:00,
2013-06-09 00:47:00,73.5,66.2,29.85,ESE,108,1.0,3.0,78,0.00,,---,0.00,VWS V14.01,2013-06-09 05:47:00,
2013-06-09 00:52:00,73.5,66.2,29.84,East,96,2.0,3.0,78,0.00,,---,0.00,VWS V14.01,2013-06-09 05:52:00,
2013-06-09 00:57:00,73.6,66.3,29.84,SE,129,3.0,3.0,78,0.00,,---,0.00,VWS V14.01,2013-06-09 05:57:00,
2013-06-09 01:02:00,73.7,66.8,29.84,ESE,103,1.0,3.0,79,0.00,,---,0.00,VWS V14.01,2013-06-09 06:02:00,
2013-06-09 01:07:00,73.8,66.2,29.84,ESE,115,2.0,3.0,77,0.00,,---,0.00,VWS V14.01,2013-06-09 06:07:00,
2013-06-09 01:12:00,74.0,66.3,29.85,ESE,121,2.0,4.0,77,0.00,,---,0.00,VWS V14.01,2013-06-09 06:12:00,
2013-06-09 01:17:00,74.2,66.9,29.85,ESE,108,1.0,4.0,78,0.00,,---,0.00,VWS V14.01,2013-06-09 06:17:00,
2013-06-09 01:22:00,74.1,66.1,29.85,ESE,104,3.0,4.0,76,0.00,,---,0.00,VWS V14.01,2013-06-09 06:22:00,
2013-06-09 01:27:00,74.2,65.8,29.85,East,84,2.0,6.0,75,0.00,,---,0.00,VWS V14.01,2013-06-09 06:27:00,
2013-06-09 01:32:00,74.2,65.8,29.85,ESE,105,0.0,3.0,75,0.00,,---,0.00,VWS V14.01,2013-06-09 06:32:00,
2013-06-09 01:37:00,74.3,66.2,29.85,ESE,117,3.0,5.0,76,0.00,,---,0.00,VWS V14.01,2013-06-09 06:37:00,
2013-06-09 01:42:00,74.2,66.2,29.85,East,86,0.0,6.0,76,0.00,,---,0.00,VWS V14.01,2013-06-09 06:42:00,
2013-06-09 01:47:00,73.9,66.2,29.85,East,101,1.0,6.0,77,0.00,,---,0.00,VWS V14.01,2013-06-09 06:47:00,
2013-06-09 01:52:00,73.5,65.9,29.85,East,87,3.0,6.0,77,0.00,,---,0.00,VWS V14.01,2013-06-09 06:52:00,
2013-06-09 01:57:00,73.3,65.7,29.84,East,80,4.0,6.0,77,0.00,,---,0.00,VWS V14.01,2013-06-09 06:57:00,
2013-06-09 02:02:00,73.4,66.1,29.84,SE,124,3.0,4.0,78,0.00,,---,0.00,VWS V14.01,2013-06-09 07:02:00,
2013-06-09 02:07:00,73.5,65.9,29.84,ESE,103,4.0,5.0,77,0.00,,---,0.00,VWS V14.01,2013-06-09 07:07:00,
2013-06-09 02:12:00,73.6,66.3,29.84,ESE,104,4.0,5.0,78,0.00,,---,0.00,VWS V14.01,2013-06-09 07:12:00,
2013-06-09 02:17:00,73.6,65.9,29.84,East,101,3.0,6.0,77,0.00,,---,0.00,VWS V14.01,2013-06-09 07:17:00,
2013-06-09 02:22:00,73.5,65.9,29.85,East,93,2.0,6.0,77,0.00,,---,0.00,VWS V14.01,2013-06-09 07:22:00,
2013-06-09 02:27:00,73.5,66.6,29.84,East,80,3.0,6.0,79,0.00,,---,0.00,VWS V14.01,2013-06-09 07:27:00,
2013-06-09 02:32:00,73.8,66.9,29.84,ESE,113,3.0,3.0,79,0.00,,---,0.00,VWS V14.01,2013-06-09 07:32:00,
2013-06-09 02:37:00,74.1,66.4,29.84,SE,141,3.0,6.0,77,0.00,,---,0.00,VWS V14.01,2013-06-09 07:37:00,
2013-06-09 02:42:00,74.3,67.0,29.84,East,95,4.0,6.0,78,0.00,,---,0.00,VWS V14.01,2013-06-09 07:42:00,
2013-06-09 02:47:00,74.4,66.3,29.84,SE,134,3.0,6.0,76,0.00,,---,0.00,VWS V14.01,2013-06-09 07:47:00,
2013-06-09 02:52:00,74.4,66.7,29.83,SE,142,2.0,6.0,77,0.00,,---,0.00,VWS V14.01,2013-06-09 07:52:00,
2013-06-09 02:57:00,74.4,67.1,29.83,East,86,3.0,6.0,78,0.00,,---,0.00,VWS V14.01,2013-06-09 07:57:00,
2013-06-09 03:02:00,74.3,66.2,29.83,SE,124,5.0,6.0,76,0.00,,---,0.00,VWS V14.01,2013-06-09 08:02:00,
2013-06-09 03:07:00,74.2,66.5,29.83,SSE,150,4.0,6.0,77,0.00,,---,0.00,VWS V14.01,2013-06-09 08:07:00,
2013-06-09 03:12:00,74.2,66.9,29.83,SE,134,4.0,7.0,78,0.00,,---,0.00,VWS V14.01,2013-06-09 08:12:00,
2013-06-09 03:17:00,74.2,66.9,29.83,ESE,105,3.0,7.0,78,0.00,,---,0.00,VWS V14.01,2013-06-09 08:17:00,
2013-06-09 03:22:00,74.2,66.9,29.83,SE,127,3.0,7.0,78,0.00,,---,0.00,VWS V14.01,2013-06-09 08:22:00,
2013-06-09 03:27:00,74.1,66.8,29.83,SSE,153,4.0,7.0,78,0.00,,---,0.00,VWS V14.01,2013-06-09 08:27:00,
2013-06-09 03:32:00,74.0,66.7,29.83,ESE,111,1.0,2.0,78,0.00,,---,0.00,VWS V14.01,2013-06-09 08:32:00,
2013-06-09 03:37:00,73.9,67.0,29.84,SSE,149,3.0,4.0,79,0.00,,---,0.00,VWS V14.01,2013-06-09 08:37:00,
2013-06-09 03:42:00,73.9,67.0,29.84,SSE,150,2.0,6.0,79,0.00,,---,0.00,VWS V14.01,2013-06-09 08:42:00,
2013-06-09 03:47:00,73.7,66.8,29.84,SSE,148,1.0,6.0,79,0.00,,---,0.00,VWS V14.01,2013-06-09 08:47:00,
2013-06-09 03:52:00,73.6,66.7,29.84,SE,136,1.0,6.0,79,0.00,,---,0.00,VWS V14.01,2013-06-09 08:52:00,
2013-06-09 03:57:00,73.6,66.7,29.84,SE,134,2.0,6.0,79,0.00,,---,0.00,VWS V14.01,2013-06-09 08:57:00,
2013-06-09 04:02:00,73.6,67.1,29.84,SE,132,2.0,2.0,80,0.00,,---,0.00,VWS V14.01,2013-06-09 09:02:00,
2013-06-09 04:07:00,73.5,67.0,29.83,SE,143,3.0,3.0,80,0.00,,---,0.00,VWS V14.01,2013-06-09 09:07:00,
2013-06-09 04:12:00,73.5,67.0,29.83,ESE,117,3.0,4.0,80,0.00,,---,0.00,VWS V14.01,2013-06-09 09:12:00,
2013-06-09 04:17:00,73.5,67.0,29.83,SE,145,4.0,6.0,80,0.00,,---,0.00,VWS V14.01,2013-06-09 09:17:00,
2013-06-09 04:22:00,73.5,67.0,29.83,SSE,147,2.0,6.0,80,0.00,,---,0.00,VWS V14.01,2013-06-09 09:22:00,
2013-06-09 04:27:00,73.5,67.3,29.83,ESE,117,2.0,6.0,81,0.00,,---,0.00,VWS V14.01,2013-06-09 09:27:00,
2013-06-09 04:32:00,73.4,67.2,29.83,East,100,3.0,4.0,81,0.00,,---,0.00,VWS V14.01,2013-06-09 09:32:00,
2013-06-09 04:37:00,73.3,67.1,29.83,SSE,163,3.0,4.0,81,0.00,,---,0.00,VWS V14.01,2013-06-09 09:37:00,
2013-06-09 04:42:00,73.3,67.5,29.83,SSE,153,2.0,4.0,82,0.00,,---,0.00,VWS V14.01,2013-06-09 09:42:00,
2013-06-09 04:47:00,73.3,67.5,29.84,SE,132,1.0,4.0,82,0.00,,---,0.00,VWS V14.01,2013-06-09 09:47:00,
2013-06-09 04:52:00,73.2,67.4,29.84,SSE,161,4.0,5.0,82,0.00,,---,0.00,VWS V14.01,2013-06-09 09:52:00,
2013-06-09 04:57:00,73.2,67.4,29.84,SSE,150,2.0,5.0,82,0.00,,---,0.00,VWS V14.01,2013-06-09 09:57:00,
2013-06-09 05:02:00,73.2,67.7,29.84,East,79,2.0,2.0,83,0.00,,---,0.00,VWS V14.01,2013-06-09 10:02:00,
2013-06-09 05:07:00,73.2,67.7,29.84,SSE,160,2.0,5.0,83,0.00,,---,0.00,VWS V14.01,2013-06-09 10:07:00,
2013-06-09 05:12:00,73.1,67.6,29.84,SSE,160,5.0,5.0,83,0.00,,---,0.00,VWS V14.01,2013-06-09 10:12:00,
2013-06-09 05:17:00,73.0,67.5,29.84,SSE,156,3.0,5.0,83,0.00,,---,0.00,VWS V14.01,2013-06-09 10:17:00,
2013-06-09 05:22:00,73.0,67.5,29.84,South,172,4.0,5.0,83,0.00,,---,0.00,VWS V14.01,2013-06-09 10:22:00,
2013-06-09 05:27:00,72.9,67.4,29.84,SSE,151,0.0,5.0,83,0.00,,---,0.00,VWS V14.01,2013-06-09 10:27:00,
2013-06-09 05:32:00,72.9,67.8,29.85,SSE,150,1.0,1.0,84,0.00,,---,0.00,VWS V14.01,2013-06-09 10:32:00,
2013-06-09 05:37:00,72.8,67.7,29.84,SSE,148,2.0,4.0,84,0.00,,---,0.00,VWS V14.01,2013-06-09 10:37:00,
2013-06-09 05:42:00,72.8,68.0,29.84,ESE,120,0.0,4.0,85,0.00,,---,0.00,VWS V14.01,2013-06-09 10:42:00,
2013-06-09 05:47:00,72.8,68.0,29.84,SSE,148,2.0,4.0,85,0.00,,---,0.00,VWS V14.01,2013-06-09 10:47:00,
2013-06-09 05:52:00,72.7,67.9,29.84,SE,134,2.0,5.0,85,0.00,,---,0.00,VWS V14.01,2013-06-09 10:52:00,
2013-06-09 05:57:00,72.7,67.9,29.84,SSE,151,4.0,5.0,85,0.00,,---,0.00,VWS V14.01,2013-06-09 10:57:00,
2013-06-09 06:02:00,72.6,67.8,29.84,East,94,3.0,3.0,85,0.00,,---,0.00,VWS V14.01,2013-06-09 11:02:00,
2013-06-09 06:07:00,72.5,68.1,29.84,ESE,111,3.0,4.0,86,0.00,,---,0.00,VWS V14.01,2013-06-09 11:07:00,
2013-06-09 06:12:00,72.4,68.0,29.84,East,88,0.0,4.0,86,0.00,,---,0.00,VWS V14.01,2013-06-09 11:12:00,
2013-06-09 06:17:00,72.2,67.8,29.84,East,79,2.0,4.0,86,0.00,,---,0.00,VWS V14.01,2013-06-09 11:17:00,
2013-06-09 06:22:00,71.9,67.5,29.84,East,91,0.0,4.0,86,0.00,,---,0.00,VWS V14.01,2013-06-09 11:22:00,
2013-06-09 06:27:00,71.8,67.7,29.84,ESE,120,0.0,4.0,87,0.00,,---,0.00,VWS V14.01,2013-06-09 11:27:00,
2013-06-09 06:32:00,71.8,67.7,29.84,SSE,147,2.0,2.0,87,0.00,,---,0.00,VWS V14.01,2013-06-09 11:32:00,
2013-06-09 06:37:00,71.8,67.7,29.84,SSE,161,4.0,5.0,87,0.00,,---,0.00,VWS V14.01,2013-06-09 11:37:00,
2013-06-09 06:42:00,72.0,67.9,29.85,SSE,147,4.0,9.0,87,0.00,,---,0.00,VWS V14.01,2013-06-09 11:42:00,
2013-06-09 06:47:00,72.0,67.9,29.85,SSE,155,4.0,9.0,87,0.00,,---,0.00,VWS V14.01,2013-06-09 11:47:00,
2013-06-09 06:52:00,72.1,68.0,29.85,South,169,6.0,9.0,87,0.00,,---,0.00,VWS V14.01,2013-06-09 11:52:00,
2013-06-09 06:57:00,72.2,68.4,29.85,South,175,10.0,10.0,88,0.00,,---,0.00,VWS V14.01,2013-06-09 11:57:00,
2013-06-09 07:02:00,72.4,68.7,29.85,SSE,165,9.0,9.0,88,0.00,,---,0.00,VWS V14.01,2013-06-09 12:02:00,
2013-06-09 07:07:00,72.5,68.8,29.85,SSE,160,6.0,10.0,88,0.00,,---,0.00,VWS V14.01,2013-06-09 12:07:00,
2013-06-09 07:12:00,72.6,68.8,29.85,SSE,148,3.0,11.0,88,0.00,,---,0.00,VWS V14.01,2013-06-09 12:12:00,
2013-06-09 07:17:00,72.7,68.9,29.86,SSW,197,5.0,11.0,88,0.00,,---,0.00,VWS V14.01,2013-06-09 12:17:00,
2013-06-09 07:22:00,72.8,69.0,29.86,SSE,155,7.0,11.0,88,0.00,,---,0.00,VWS V14.01,2013-06-09 12:22:00,
2013-06-09 07:27:00,72.8,69.0,29.86,South,174,3.0,11.0,88,0.00,,---,0.00,VWS V14.01,2013-06-09 12:27:00,
2013-06-09 07:32:00,72.9,69.1,29.86,South,177,3.0,8.0,88,0.00,,---,0.00,VWS V14.01,2013-06-09 12:32:00,
2013-06-09 07:37:00,72.9,69.5,29.86,SSE,158,2.0,9.0,89,0.00,,---,0.00,VWS V14.01,2013-06-09 12:37:00,
2013-06-09 07:42:00,73.0,69.6,29.86,SSW,205,3.0,9.0,89,0.00,,---,0.00,VWS V14.01,2013-06-09 12:42:00,
2013-06-09 07:47:00,73.1,69.3,29.87,West,274,0.0,9.0,88,0.00,,---,0.00,VWS V14.01,2013-06-09 12:47:00,
2013-06-09 07:52:00,73.1,69.7,29.87,NW,316,2.0,9.0,89,0.00,,---,0.00,VWS V14.01,2013-06-09 12:52:00,
2013-06-09 07:57:00,73.1,69.3,29.88,NW,314,2.0,9.0,88,0.00,,---,0.00,VWS V14.01,2013-06-09 12:57:00,
2013-06-09 08:02:00,73.0,69.6,29.88,NW,321,1.0,2.0,89,0.00,,---,0.00,VWS V14.01,2013-06-09 13:02:00,
2013-06-09 08:07:00,72.8,69.4,29.88,NNW,332,0.0,2.0,89,0.00,,---,0.00,VWS V14.01,2013-06-09 13:07:00,
2013-06-09 08:12:00,72.8,69.4,29.88,NNW,329,2.0,2.0,89,0.00,,---,0.00,VWS V14.01,2013-06-09 13:12:00,
2013-06-09 08:17:00,72.7,69.3,29.88,NNW,334,2.0,5.0,89,0.00,,---,0.00,VWS V14.01,2013-06-09 13:17:00,
2013-06-09 08:22:00,72.6,69.2,29.88,SE,136,0.0,5.0,89,0.00,,---,0.00,VWS V14.01,2013-06-09 13:22:00,
2013-06-09 08:27:00,72.5,69.4,29.88,NNE,25,0.0,5.0,90,0.09,,---,0.09,VWS V14.01,2013-06-09 13:27:00,
2013-06-09 08:32:00,71.9,68.8,29.88,NNW,340,3.0,3.0,90,0.15,,---,0.15,VWS V14.01,2013-06-09 13:32:00,
2013-06-09 08:37:00,71.3,68.5,29.89,NW,318,3.0,5.0,91,0.16,,---,0.16,VWS V14.01,2013-06-09 13:37:00,
2013-06-09 08:42:00,70.7,67.9,29.88,NW,318,2.0,5.0,91,0.16,,---,0.16,VWS V14.01,2013-06-09 13:42:00,
2013-06-09 08:47:00,70.0,67.6,29.89,NW,321,5.0,6.0,92,0.17,,---,0.17,VWS V14.01,2013-06-09 13:47:00,
2013-06-09 08:52:00,69.2,66.8,29.88,NW,314,5.0,9.0,92,0.22,,---,0.22,VWS V14.01,2013-06-09 13:52:00,
2013-06-09 08:57:00,68.6,66.5,29.89,NNW,327,5.0,9.0,93,0.41,,---,0.41,VWS V14.01,2013-06-09 13:57:00,
2013-06-09 09:02:00,68.2,66.4,29.88,South,169,1.0,5.0,94,0.47,,---,0.47,VWS V14.01,2013-06-09 14:02:00,
2013-06-09 09:07:00,68.1,66.3,29.90,ENE,57,1.0,5.0,94,0.49,,---,0.49,VWS V14.01,2013-06-09 14:07:00,
2013-06-09 09:12:00,68.1,66.6,29.89,NNW,339,4.0,5.0,95,0.49,,---,0.49,VWS V14.01,2013-06-09 14:12:00,
2013-06-09 09:17:00,68.2,66.7,29.91,SSW,195,1.0,5.0,95,0.49,,---,0.49,VWS V14.01,2013-06-09 14:17:00,
2013-06-09 09:22:00,68.2,66.7,29.91,North,355,0.0,5.0,95,0.51,,---,0.51,VWS V14.01,2013-06-09 14:22:00,
2013-06-09 09:27:00,68.1,66.6,29.90,NNE,24,2.0,5.0,95,0.52,,---,0.52,VWS V14.01,2013-06-09 14:27:00,
2013-06-09 09:32:00,68.1,66.6,29.90,NE,47,1.0,2.0,95,0.39,,---,0.54,VWS V14.01,2013-06-09 14:32:00,
2013-06-09 09:37:00,68.1,66.6,29.91,NNW,342,0.0,3.0,95,0.41,,---,0.56,VWS V14.01,2013-06-09 14:37:00,
2013-06-09 09:42:00,68.2,66.7,29.90,NNW,347,0.0,3.0,95,0.42,,---,0.57,VWS V14.01,2013-06-09 14:42:00,
2013-06-09 09:47:00,68.3,66.8,29.91,SE,146,0.0,3.0,95,0.42,,---,0.57,VWS V14.01,2013-06-09 14:47:00,
2013-06-09 09:52:00,68.5,67.3,29.91,NNW,339,0.0,3.0,96,0.42,,---,0.57,VWS V14.01,2013-06-09 14:52:00,
2013-06-09 09:57:00,68.5,67.3,29.91,NNW,345,0.0,3.0,96,0.42,,---,0.57,VWS V14.01,2013-06-09 14:57:00,
2013-06-09 10:02:00,68.6,67.4,29.90,SE,138,1.0,1.0,96,0.11,,---,0.57,VWS V14.01,2013-06-09 15:02:00,
2013-06-09 10:07:00,68.7,67.2,29.90,ESE,114,1.0,2.0,95,0.11,,---,0.57,VWS V14.01,2013-06-09 15:07:00,
2013-06-09 10:12:00,68.7,67.5,29.90,SE,142,1.0,3.0,96,0.11,,---,0.57,VWS V14.01,2013-06-09 15:12:00,
2013-06-09 10:17:00,68.8,67.6,29.90,SSE,149,1.0,3.0,96,0.12,,---,0.58,VWS V14.01,2013-06-09 15:17:00,
2013-06-09 10:22:00,68.9,67.7,29.90,SSE,161,4.0,5.0,96,0.12,,---,0.58,VWS V14.01,2013-06-09 15:22:00,
2013-06-09 10:27:00,69.0,67.8,29.90,SE,133,0.0,5.0,96,0.12,,---,0.58,VWS V14.01,2013-06-09 15:27:00,
2013-06-09 10:32:00,69.0,67.8,29.90,South,170,5.0,6.0,96,0.07,,---,0.59,VWS V14.01,2013-06-09 15:32:00,
2013-06-09 10:37:00,69.2,68.0,29.90,SE,146,3.0,7.0,96,0.07,,---,0.59,VWS V14.01,2013-06-09 15:37:00,
2013-06-09 10:42:00,69.5,68.3,29.90,SE,138,2.0,7.0,96,0.08,,---,0.60,VWS V14.01,2013-06-09 15:42:00,
2013-06-09 10:47:00,69.5,68.0,29.90,South,184,6.0,10.0,95,0.08,,---,0.60,VWS V14.01,2013-06-09 15:47:00,
2013-06-09 10:52:00,69.5,68.0,29.90,SSE,167,9.0,11.0,95,0.08,,---,0.60,VWS V14.01,2013-06-09 15:52:00,
2013-06-09 10:57:00,69.6,68.1,29.90,SSE,153,7.0,13.0,95,0.08,,---,0.60,VWS V14.01,2013-06-09 15:57:00,
2013-06-09 11:02:00,69.7,68.2,29.90,SSE,150,8.0,14.0,95,0.03,,---,0.60,VWS V14.01,2013-06-09 16:02:00,
2013-06-09 11:07:00,69.7,68.2,29.90,South,173,7.0,14.0,95,0.03,,---,0.60,VWS V14.01,2013-06-09 16:07:00,
2013-06-09 11:12:00,69.8,68.3,29.90,South,191,4.0,14.0,95,0.03,,---,0.60,VWS V14.01,2013-06-09 16:12:00,
2013-06-09 11:17:00,69.9,68.4,29.90,SSE,156,5.0,16.0,95,0.03,,---,0.60,VWS V14.01,2013-06-09 16:17:00,
2013-06-09 11:22:00,69.8,68.3,29.89,South,169,7.0,16.0,95,0.03,,---,0.60,VWS V14.01,2013-06-09 16:22:00,
2013-06-09 11:27:00,69.8,68.0,29.89,SE,143,4.0,16.0,94,0.04,,---,0.61,VWS V14.01,2013-06-09 16:27:00,
2013-06-09 11:32:00,70.0,68.2,29.88,SSE,164,4.0,8.0,94,0.03,,---,0.61,VWS V14.01,2013-06-09 16:32:00,
2013-06-09 11:37:00,70.4,68.9,29.87,ESE,112,2.0,8.0,95,0.03,,---,0.61,VWS V14.01,2013-06-09 16:37:00,
2013-06-09 11:42:00,70.5,68.7,29.86,SE,137,6.0,9.0,94,0.03,,---,0.61,VWS V14.01,2013-06-09 16:42:00,
2013-06-09 11:47:00,70.7,68.6,29.86,SE,132,4.0,9.0,93,0.03,,---,0.61,VWS V14.01,2013-06-09 16:47:00,
2013-06-09 11:52:00,70.9,68.8,29.86,ESE,108,6.0,9.0,93,0.03,,---,0.61,VWS V14.01,2013-06-09 16:52:00,
2013-06-09 11:57:00,70.9,68.8,29.85,NNW,339,0.0,10.0,93,0.04,,---,0.62,VWS V14.01,2013-06-09 16:57:00,
2013-06-09 12:02:00,71.0,68.6,29.86,ESE,117,6.0,7.0,92,0.02,,---,0.62,VWS V14.01,2013-06-09 17:02:00,
2013-06-09 12:07:00,71.1,69.0,29.87,NW,321,0.0,7.0,93,0.02,,---,0.62,VWS V14.01,2013-06-09 17:07:00,
2013-06-09 12:12:00,71.3,68.9,29.88,NW,326,2.0,7.0,92,0.02,,---,0.62,VWS V14.01,2013-06-09 17:12:00,
2013-06-09 12:17:00,71.7,69.6,29.88,NW,319,3.0,7.0,93,0.02,,---,0.62,VWS V14.01,2013-06-09 17:17:00,
2013-06-09 12:22:00,72.1,70.0,29.87,NW,323,4.0,7.0,93,0.02,,---,0.62,VWS V14.01,2013-06-09 17:22:00,
2013-06-09 12:27:00,72.4,69.9,29.88,WNW,298,3.0,7.0,92,0.02,,---,0.62,VWS V14.01,2013-06-09 17:27:00,
2013-06-09 12:32:00,72.5,69.4,29.88,NW,316,4.0,5.0,90,0.01,,---,0.62,VWS V14.01,2013-06-09 17:32:00,
2013-06-09 12:37:00,72.6,69.2,29.88,NW,315,3.0,6.0,89,0.01,,---,0.62,VWS V14.01,2013-06-09 17:37:00,
2013-06-09 12:42:00,73.1,69.7,29.87,NW,318,2.0,6.0,89,0.01,,---,0.62,VWS V14.01,2013-06-09 17:42:00,
2013-06-09 12:47:00,74.0,70.2,29.87,NW,323,0.0,6.0,88,0.01,,---,0.62,VWS V14.01,2013-06-09 17:47:00,
2013-06-09 12:52:00,74.9,69.7,29.86,NNW,328,2.0,6.0,84,0.01,,---,0.62,VWS V14.01,2013-06-09 17:52:00,
2013-06-09 12:57:00,75.7,69.8,29.86,NW,319,2.0,6.0,82,0.01,,---,0.62,VWS V14.01,2013-06-09 17:57:00,
2013-06-09 13:02:00,76.0,69.0,29.86,NNW,329,2.0,3.0,79,0.00,,---,0.62,VWS V14.01,2013-06-09 18:02:00,
2013-06-09 13:07:00,77.0,70.4,29.86,NNW,335,0.0,3.0,80,0.00,,---,0.62,VWS V14.01,2013-06-09 18:07:00,
2013-06-09 13:12:00,78.5,70.3,29.86,NNW,329,0.0,3.0,76,0.00,,---,0.62,VWS V14.01,2013-06-09 18:12:00,
2013-06-09 13:17:00,79.2,69.8,29.86,NW,326,1.0,3.0,73,0.00,,---,0.62,VWS V14.01,2013-06-09 18:17:00,
2013-06-09 13:22:00,79.5,69.7,29.85,NNW,338,1.0,4.0,72,0.00,,---,0.62,VWS V14.01,2013-06-09 18:22:00,
2013-06-09 13:27:00,79.6,69.4,29.85,NW,322,2.0,4.0,71,0.00,,---,0.62,VWS V14.01,2013-06-09 18:27:00,
2013-06-09 13:32:00,79.9,69.7,29.85,NW,318,2.0,6.0,71,0.00,,---,0.62,VWS V14.01,2013-06-09 18:32:00,
2013-06-09 13:37:00,80.1,69.9,29.85,NNW,327,1.0,6.0,71,0.00,,---,0.62,VWS V14.01,2013-06-09 18:37:00,
2013-06-09 13:42:00,80.7,70.4,29.85,NW,323,1.0,6.0,71,0.00,,---,0.62,VWS V14.01,2013-06-09 18:42:00,
2013-06-09 13:47:00,81.0,69.4,29.85,NW,310,4.0,6.0,68,0.00,,---,0.62,VWS V14.01,2013-06-09 18:47:00,
2013-06-09 13:52:00,81.2,70.5,29.85,NW,323,1.0,6.0,70,0.00,,---,0.62,VWS V14.01,2013-06-09 18:52:00,
2013-06-09 13:57:00,81.6,70.9,29.85,NW,312,4.0,6.0,70,0.00,,---,0.62,VWS V14.01,2013-06-09 18:57:00,
2013-06-09 14:02:00,82.1,70.9,29.85,NW,325,0.0,2.0,69,0.00,,---,0.62,VWS V14.01,2013-06-09 19:02:00,
2013-06-09 14:07:00,82.4,70.3,29.85,NW,323,3.0,5.0,67,0.00,,---,0.62,VWS V14.01,2013-06-09 19:07:00,
2013-06-09 14:12:00,82.7,70.6,29.84,ESE,117,1.0,5.0,67,0.00,,---,0.62,VWS V14.01,2013-06-09 19:12:00,
2013-06-09 14:17:00,84.4,71.8,29.84,NNW,345,1.0,5.0,66,0.00,,---,0.62,VWS V14.01,2013-06-09 19:17:00,
2013-06-09 14:22:00,86.0,71.5,29.84,NW,326,2.0,5.0,62,0.00,,---,0.62,VWS V14.01,2013-06-09 19:22:00,
2013-06-09 14:27:00,87.3,71.2,29.84,NW,326,2.0,5.0,59,0.00,,---,0.62,VWS V14.01,2013-06-09 19:27:00,
2013-06-09 14:32:00,87.2,71.1,29.84,South,187,1.0,2.0,59,0.00,,---,0.62,VWS V14.01,2013-06-09 19:32:00,
2013-06-09 14:37:00,87.9,71.3,29.84,North,359,1.0,7.0,58,0.00,,---,0.62,VWS V14.01,2013-06-09 19:37:00,
2013-06-09 14:42:00,88.5,70.3,29.84,NW,326,1.0,7.0,55,0.00,,---,0.62,VWS V14.01,2013-06-09 19:42:00,
2013-06-09 14:47:00,87.2,70.1,29.84,NNW,327,0.0,7.0,57,0.00,,---,0.62,VWS V14.01,2013-06-09 19:47:00,
2013-06-09 14:52:00,87.9,72.8,29.84,SSE,162,3.0,7.0,61,0.00,,---,0.62,VWS V14.01,2013-06-09 19:52:00,
2013-06-09 14:57:00,87.4,72.8,29.84,SE,124,3.0,7.0,62,0.00,,---,0.62,VWS V14.01,2013-06-09 19:57:00,
2013-06-09 15:02:00,85.9,73.2,29.84,ESE,104,6.0,6.0,66,0.00,,---,0.62,VWS V14.01,2013-06-09 20:02:00,
2013-06-09 15:07:00,85.4,72.3,29.84,NE,41,1.0,8.0,65,0.00,,---,0.62,VWS V14.01,2013-06-09 20:07:00,
2013-06-09 15:12:00,86.0,72.9,29.84,NNW,332,1.0,8.0,65,0.00,,---,0.62,VWS V14.01,2013-06-09 20:12:00,
2013-06-09 15:17:00,86.7,70.7,29.84,South,184,2.0,8.0,59,0.00,,---,0.62,VWS V14.01,2013-06-09 20:17:00,
2013-06-09 15:22:00,87.4,70.3,29.84,ESE,123,0.0,8.0,57,0.00,,---,0.62,VWS V14.01,2013-06-09 20:22:00,
2013-06-09 15:27:00,88.1,70.4,29.85,ESE,117,1.0,8.0,56,0.00,,---,0.62,VWS V14.01,2013-06-09 20:27:00,
2013-06-09 15:32:00,89.1,69.8,29.85,North,352,0.0,2.0,53,0.00,,---,0.62,VWS V14.01,2013-06-09 20:32:00,
2013-06-09 15:37:00,89.4,70.6,29.85,North,11,0.0,5.0,54,0.00,,---,0.62,VWS V14.01,2013-06-09 20:37:00,
2013-06-09 15:42:00,89.7,69.8,29.85,NNW,327,2.0,5.0,52,0.00,,---,0.62,VWS V14.01,2013-06-09 20:42:00,
2013-06-09 15:47:00,89.1,69.2,29.85,SE,146,4.0,5.0,52,0.00,,---,0.62,VWS V14.01,2013-06-09 20:47:00,
2013-06-09 15:52:00,89.1,68.6,29.85,SSW,203,2.0,5.0,51,0.00,,---,0.62,VWS V14.01,2013-06-09 20:52:00,
2013-06-09 15:57:00,89.2,69.3,29.85,South,174,1.0,5.0,52,0.00,,---,0.62,VWS V14.01,2013-06-09 20:57:00,
2013-06-09 16:02:00,89.3,69.4,29.85,East,89,1.0,2.0,52,0.00,,---,0.62,VWS V14.01,2013-06-09 21:02:00,
2013-06-09 16:07:00,89.4,68.9,29.85,NW,313,2.0,3.0,51,0.00,,---,0.62,VWS V14.01,2013-06-09 21:07:00,
2013-06-09 16:12:00,87.8,69.6,29.85,NW,319,2.0,4.0,55,0.00,,---,0.62,VWS V14.01,2013-06-09 21:12:00,
2013-06-09 16:30:00,88.0,69.3,29.85,NW,315,1.0,4.0,54,0.00,,---,0.62,VWS V14.01,2013-06-09 21:30:00,
2013-06-09 17:00:00,89.2,69.3,29.84,South,180,2.0,5.0,52,0.00,,---,0.62,VWS V14.01,2013-06-09 22:00:00,
2013-06-09 17:30:00,89.6,69.1,29.83,South,180,1.0,4.0,51,0.00,,---,0.62,VWS V14.01,2013-06-09 22:30:00,
2013-06-09 18:00:00,90.6,70.0,29.83,SSE,158,1.0,4.0,51,0.00,,---,0.62,VWS V14.01,2013-06-09 23:00:00,
2013-06-09 18:30:00,87.0,71.4,29.83,SE,135,1.0,3.0,60,0.00,,---,0.62,VWS V14.01,2013-06-09 23:30:00,
2013-06-09 19:00:00,86.6,70.6,29.83,SE,135,1.0,3.0,59,0.00,,---,0.62,VWS V14.01,2013-06-10 00:00:00,
2013-06-09 19:30:00,84.1,72.4,29.83,ESE,112,1.0,3.0,68,0.00,,---,0.62,VWS V14.01,2013-06-10 00:30:00,
2013-06-09 20:00:00,82.4,71.6,29.83,SSE,158,1.0,4.0,70,0.00,,---,0.62,VWS V14.01,2013-06-10 01:00:00,
2013-06-09 20:30:00,80.4,72.5,29.83,SE,135,0.0,1.0,77,0.00,,---,0.62,VWS V14.01,2013-06-10 01:30:00,
2013-06-09 21:00:00,78.0,71.7,29.84,SE,135,0.0,1.0,81,0.00,,---,0.62,VWS V14.01,2013-06-10 02:00:00,
2013-06-09 21:30:00,76.5,71.7,29.85,SE,135,0.0,0.0,85,0.00,,---,0.62,VWS V14.01,2013-06-10 02:30:00,
2013-06-09 22:00:00,75.5,71.7,29.86,SE,135,0.0,0.0,88,0.00,,---,0.62,VWS V14.01,2013-06-10 03:00:00,
2013-06-09 22:30:00,74.4,71.6,29.87,SE,135,0.0,0.0,91,0.00,,---,0.62,VWS V14.01,2013-06-10 03:30:00,
2013-06-09 23:00:00,74.4,72.6,29.88,SE,135,0.0,0.0,94,0.00,,---,0.62,VWS V14.01,2013-06-10 04:00:00,
2013-06-09 23:30:00,73.9,71.8,29.89,SE,135,0.0,0.0,93,0.00,,---,0.62,VWS V14.01,2013-06-10 04:30:00,